Погода в Мараксе 1-ой

Россия / Томская область     58°23′06″N   83°04′40″E
темп.,
°C
ветер,
м/с
пор.,
м/с
влажн.,
%
обл.,
%
осадки,
мм/ч
давл.,
гПа
погр.,
м
12 мая, ср
ср1201:00+7с22645 0.0 102132
04:00+6с11680 0.0 102010
07:00+8сз12620 0.0 102073
10:00+14з23410 0.0 1018733
13:00+17зюз343340 0.0 10171706
16:00+18зюз23295 0.0 10152061
19:00+18з23295 0.0 10142146
22:00+12ссв11455 0.0 101410
13 мая, чт
чт1301:00+10св115182 0.0 101310
04:00+8с387995 0.0 1014281
07:00+9с3781100 0.0 1014382
10:00+11ссз3572100 0.0 1014661
13:00+11сз2371100 0.2 1014738
16:00+12зсз236481 0.1 10141070
19:00+14сз254894 0.1 10131578
22:00+9зсз36565 0.0 1014105
14 мая, пт
пт1401:00+9сз51074100 0.0 1015923
04:00+6ссз6966100 0.0 10161185
07:00+4ссз595781 0.0 10191269
10:00+6сз58455 0.0 10201250
13:00+10сз69255 0.0 10191574
16:00+12сз582499 0.0 10191774
19:00+10зсз774699 0.0 10201357
22:00+6ю2485100 0.5 1019181
15 мая, сб
сб1501:00+8ююз5148052 1.1 1016479
04:00+8юз310855 0.2 1013259
07:00+10зюз411855 0.3 1012373
10:00+16зюз4872100 0.1 1011517
13:00+18з51066100 0.2 1012998
16:00+20зсз51064100 1.4 10111589
19:00+19зсз246621 1.9 1011854
22:00+15св128944 1.6 101236
16 мая, вс
вс1601:00+13св3696100 1.8 1012211
04:00+10св4891100 0.3 1013343
07:00+10св3691100 0.3 1014315
10:00+11св238180 0.0 1016459
13:00+17зсз1262100 0.0 10151070
16:00+16юз2466100 0.0 1013817
19:00+13ююв2394100 1.9 101293
22:00+12ююв379690 1.7 1011300